Regional Weather Roundup
Issued by NWS

Home | Current Version | Previous Version | Text Only | Print | Product List | Glossary On
Versions: 1 2 3 4 5 6 7 8 9 10 11 12 13 14 15 16 17 18 19 20 21 22 23 24 25 26 27 28 29 30 31 32 33 34 35 36 37 38 39 40 41 42 43 44 45 46 47 48 49 50
000
ASUS45 KABQ 280510
RWRNM
NEW MEXICO REGIONAL WEATHER ROUNDUP
NATIONAL WEATHER SERVICE ALBUQUERQUE NM
1100 PM MDT SAT MAY 27 2017

NOTE: "FAIR" MEANS FEW OR NO CLOUDS BELOW 12,000 FEET AGL WITH NO
       SIGNIFICANT WEATHER OR OBSTRUCTIONS TO VISION.

      THIS PRODUCT IS RELEASED AS TWO VERSIONS.  ONE VERSION NEAR
      THE TOP OF THE HOUR CONTAINING PRELIMINARY DATA FROM ALBUQUERQUE
      AND OTHER STATIONS.  A FINAL VERSION WITH ADDITIONAL DATA IS
      ISSUED ABOUT 10 MINUTES AFTER THE HOUR.

NMZ501-503-504-510>518-280600-
NORTHWEST PLATEAU/NORTHCENTRAL MOUNTAINS

CITY           SKY/WX    TMP DP  RH WIND       PRES   REMARKS
FARMINGTON     FAIR      62  13  14 N9        30.14R
LOS ALAMOS     FAIR      61  19  20 NW15      30.22R
SANTA FE       FAIR      55  22  27 N10       30.16R
TAOS           FAIR      45  12  26 NW9       30.23R
ANGEL FIRE     FAIR      38  25  58 CALM      30.29S

$$
NMZ402-403-502-505>509-280600-
WESTCENTRAL MOUNTAINS/SOUTHWEST MOUNTAINS

CITY           SKY/WX    TMP DP  RH WIND       PRES   REMARKS
GALLUP         FAIR      53  25  33 SE3       30.21R
GRANTS         FAIR      54  18  24 N5        30.23R
SILVER CITY    FAIR      60  12  15 N12       30.12S

$$
NMZ407-409-411-412-280600-
SOUTHERN DESERTS

CITY           SKY/WX    TMP DP  RH WIND       PRES   REMARKS
DEMING         FAIR      67  11  11 W7        30.04R
LAS CRUCES     FAIR      65   9  11 NW6       30.05R
HOLLOMAN AFB   FAIR      71   4   7 CALM      30.04R
ALAMOGORDO     FAIR      68   9  10 E3        30.02S
T OR C         LGT RAIN  69   4   7 W8        30.06R

$$
NMZ519>523-280600-
CENTRAL VALLEYS/CENTRAL HIGHLANDS

CITY           SKY/WX    TMP DP  RH WIND       PRES   REMARKS
ALBUQUERQUE    FAIR      71  21  15 N14       30.11R
DOUBLE EAGLE   FAIR      60  24  25 NW8       30.15R
MORIARTY ARPT  FAIR      53  23  31 N7        30.16R
CLINES CORNERS FAIR      56  18  22 N8        30.21R
BELEN          FAIR      65  15  14 N9        30.11R
SOCORRO        FAIR      71  12  10 NW9       30.08R

$$
NMZ524>526-539-540-280600-
SOUTHCENTRAL MOUNTAINS

CITY           SKY/WX    TMP DP  RH WIND       PRES   REMARKS
RUIDOSO        FAIR      64   5   9 SW13      30.20R

$$
NMZ527>531-280600-
NORTHEAST HIGHLANDS/NORTHEAST PLAINS

CITY           SKY/WX    TMP DP  RH WIND       PRES   REMARKS
LAS VEGAS      FAIR      46  41  82 NE18G25   30.22R
RATON          FAIR      47  37  68 N17G24    30.25S
CLAYTON        FAIR      49  45  86 N21G26    30.19S

$$
NMZ532>537-280600-
EASTCENTRAL PLAINS

CITY           SKY/WX    TMP DP  RH WIND       PRES   REMARKS
SANTA ROSA     FAIR      57  44  60 N29G39    30.09R
TUCUMCARI      FAIR      59  47  64 NE18G28   30.12R
CANNON AFB     FAIR      58  49  71 NE33G47   30.06R
CLOVIS AIRPORT FAIR      59  45  58 N32G43    30.08R

$$
NMZ028-029-538-280600-
SOUTHEAST PLAINS

CITY           SKY/WX    TMP DP  RH WIND       PRES   REMARKS
ROSWELL        FAIR      76   6   7 W16       29.94R
ARTESIA        FAIR      75  10   8 W15       29.94S
CARLSBAD       FAIR      69  16  13 W12       29.92R
HOBBS          FAIR      70   5   8 W8        29.96S


$$




USA.gov is the U.S. government's official web portal to all federal, state and local government web resources and services.